"Pseudo-MPEC" for P10NVCZ

Created 2019 May 21 3:07:23 UT using Find_Orb

Click here for an explanation of pseudo-MPECs

 
 Astrometry: 
     P10NVCZ  C2019 05 12e(wXhgZAstrometry([#\W`yv@*4/\xmhS)u0]@O?=aa*AD@xw8YF51
     P10NVCZ  C2019 05 12Rhyredacted;nr4W.fJw@-L*jlZc0uKnqI4oOfb.PbfIPDWclickF51
     P10NVCZ  C2019 05 12H.\V4g'!dkvi_m8N=A:%)2/kxXABj^ERt!g;UHs9mR:T1Ot6Y,FJF51
     P10NVCZ  C2019 05 12+XF'^LUX'vN7Dj077MiR[Jc1DTj+TnjfnqC,xR?%Nmr]'/uTR'5DF51
     P10NVCZ KC2019 05 14!xD`,mPMaGpnyH3YvuH=V1l0cM@rTuJy[Wle*-fUfBExt@Q1faN:H21
     P10NVCZ KC2019 05 14;H2pC\IXm;CQ0QXv-u+#o_wFpcbE#WmiMkv#MkG%n10La\#)+cRYH21
     P10NVCZ KC2019 05 14DnX!KkSKK)NxOu#C,hIG,O)/35r9A,7i9:x^GI/QxaM?#4-L[9U?H21
     P10NVCZ |C2019 05 14BTO\O5MhereSf2RJZU31Suk[:noGt*:)IpLWEb,45$hV7tqO:\]5807
     P10NVCZ KC2019 05 14Mr)ug*IKx,un2,nt9(d=J@.xF%(:ae)h]2=$@):MXc9eW4X9xOdr291
     P10NVCZ |C2019 05 14^bcj3%/GFOe$E_.:ff#Q4:/Ml9kdw.\`xo?bfg.;,g:kuTX;18my807
     P10NVCZ KC2019 05 14RVMxoFLRa%Ahm)]ypwkfork,#-q;TqGdxy4poZwGAIHCk;LNow:h291
     P10NVCZ KC2019 05 142qO]2].3H,f\#[(8V,`SwUYL$VRy5NU!fdh4pTJMi@MrX)Xr6UNp291
     P10NVCZ  C2019 05 14[RLgK%_:.explanationoptY^b)m2W\R*.ehf]$veN1!SC8]4aSbF51
     P10NVCZ  C2019 05 14@lJJ_\'AiePTSpk2lW`XOa1rB#/0ecM+/wUn46i#s1UjA6Y(n.C%F51
     P10NVCZ  C2019 05 14Ze]jPH-#STcdhSSkU'VeKY,alh0!2i[QLK't2^(N9E8'xFMTM)sxF51
     P10NVCZ  C2019 05 15.32120 16 48 07.51 +09 22 30.2    ~5F8b 23.5 GVNEOCPI52
     P10NVCZ  C2019 05 15.32632 16 48 07.17 +09 22 29.5    ~5F8b 21.9 GVNEOCPI52
     P10NVCZ  C2019 05 15.33142 16 48 06.77 +09 22 29.1    ~5F8b 21.7 GVNEOCPI52
     P10NVCZ  C2019 05 15.33653 16 48 06.38 +09 22 28.5    ~5F8b 21.8 GVNEOCPI52

Station data:
(291) LPL/Spacewatch II  (N31.961669 W111.599905)  US/Arizona.  Observers J.
   V. Scotti, R. S. McMillan. 1.8-m f/2.7 reflector + CCD.
(807) Cerro Tololo Observatory, La Serena  (S30.169136 W70.805900)  Chile.
(F51) Pan-STARRS 1, Haleakala  (N20.707235 W156.255910)  US/Hawaii.
   Observers N. Primak, A. Schultz, S. Watters, J. Thiel, T. Goggia. Measurer
   PS1 Science Consortium. 1.8-m Ritchey-Chrétien + CCD.
(H21) Astronomical Research Observatory, Westfield  (N39.483057 W87.968270)
   US/Illinois. 0.76-m f/3.0 astrograph + CCD.
(I52) Steward Observatory, Mt. Lemmon Station  (N32.442547 W110.788920)
   US/Arizona.  Observers T. A. Pruyne, B. M. Africano, E. J. Christensen, G.
   A. Farneth, D. C. Fuls, A. R. Gibbs, A. D. Grauer, H. Groeller, J. A.
   Johnson, R. A. Kowalski, S. M. Larson, G. J. Leonard, R. L. Seaman, F. C.
   Shelly. 1.0-m reflector + CCD.

Orbital elements:  P10NVCZ
   Perihelion 2020 May 5.426405 +/- 16.6 TT = 10:14:01 (JD 2458974.926405)
Epoch 2019 May 15.0 TT = JDT 2458618.5   Earth MOID: 0.8025   AutoNEOCP
M 224.31093157 +/- 7                (J2000 ecliptic)
n   0.38069308 +/- 0.00259          Peri.  280.12914 +/- 4.7
a   1.88546896 +/- 0.00855          Node   101.98021 +/- 0.59
e   0.1095910 +/- 0.0114            Incl.   24.85144 +/- 0.41
P   2.59/945.63d           H 19.2   G  0.15   U  8.8  
q 1.67883841 +/- 0.0152    Q 2.09209952 +/- 0.03
From 19 observations 2019 May 12-15; mean residual 0".17
Residuals in arcseconds: 
190512 F51  .15+  .15-    190514 807  .03-  .14-    190514 F51  .02+  .07+    
190512 F51  .04+  .07+    190514 291  .14+  .15+    190515 I52  .25-  .34-    
190512 F51  .06-  .12+    190514 807  .11-  .19-    190515 I52  .35+  .25-    
190512 F51  .13-  .14-    190514 291  .03-  .13-    190515 I52  .03+  .13+    
190514 H21  .09+  .06+    190514 291  .09-  .50+    190515 I52  .12-  .32+    
190514 H21  .05-  .05+    190514 F51  .12+  .17-    
190514 H21  .03+  .08+    190514 F51  .07-  .02-    

Ephemerides (geocentric):
Date (UTC) HH   RA              Dec         delta   r     elong  mag " sig PA
---- -- -- --  -------------   -----------  ------ ------ -----  --- ---- ---
2019 05 21 03  16 40 48.469   +09 00 43.94  1.1064 2.0380 148.3 21.8 4.95 166
2019 05 21 04  16 40 45.164   +09 00 31.51  1.1063 2.0380 148.3 21.8 5.01 165
2019 05 21 05  16 40 41.857   +09 00 19.03  1.1062 2.0380 148.3 21.8 5.07 165
2019 05 21 06  16 40 38.548   +09 00 06.51  1.1060 2.0379 148.4 21.8 5.12 165
2019 05 21 07  16 40 35.237   +08 59 53.94  1.1059 2.0379 148.4 21.8 5.18 165
2019 05 21 08  16 40 31.925   +08 59 41.33  1.1058 2.0379 148.4 21.8 5.24 165
2019 05 21 09  16 40 28.610   +08 59 28.67  1.1056 2.0378 148.4 21.8 5.30 165
2019 05 21 10  16 40 25.294   +08 59 15.97  1.1055 2.0378 148.4 21.8 5.36 165
2019 05 21 11  16 40 21.976   +08 59 03.23  1.1054 2.0378 148.4 21.8 5.43 165
2019 05 21 12  16 40 18.656   +08 58 50.44  1.1052 2.0377 148.5 21.8 5.49 165
2019 05 21 13  16 40 15.334   +08 58 37.61  1.1051 2.0377 148.5 21.8 5.55 165
2019 05 21 14  16 40 12.010   +08 58 24.73  1.1050 2.0376 148.5 21.8 5.61 165
2019 05 21 15  16 40 08.685   +08 58 11.81  1.1049 2.0376 148.5 21.8 5.67 165
2019 05 21 16  16 40 05.357   +08 57 58.84  1.1047 2.0376 148.5 21.8 5.74 164
2019 05 21 17  16 40 02.028   +08 57 45.83  1.1046 2.0375 148.5 21.8 5.80 164
2019 05 21 18  16 39 58.697   +08 57 32.78  1.1045 2.0375 148.6 21.8 5.86 164
2019 05 21 19  16 39 55.364   +08 57 19.68  1.1043 2.0375 148.6 21.8 5.93 164
2019 05 21 20  16 39 52.029   +08 57 06.53  1.1042 2.0374 148.6 21.8 5.99 164
2019 05 21 21  16 39 48.693   +08 56 53.35  1.1041 2.0374 148.6 21.8 6.05 164
2019 05 21 22  16 39 45.355   +08 56 40.11  1.1040 2.0374 148.6 21.8 6.12 164
2019 05 21 23  16 39 42.015   +08 56 26.84  1.1038 2.0373 148.6 21.8 6.18 164
2019 05 22 00  16 39 38.673   +08 56 13.52  1.1037 2.0373 148.6 21.8 6.25 164
2019 05 22 01  16 39 35.329   +08 56 00.15  1.1036 2.0373 148.7 21.8 6.32 164
2019 05 22 02  16 39 31.984   +08 55 46.74  1.1034 2.0372 148.7 21.8 6.38 164
2019 05 22 03  16 39 28.637   +08 55 33.28  1.1033 2.0372 148.7 21.8 6.45 164
2019 05 22 04  16 39 25.288   +08 55 19.78  1.1032 2.0371 148.7 21.8 6.51 164
2019 05 22 05  16 39 21.937   +08 55 06.24  1.1031 2.0371 148.7 21.8 6.58 163
2019 05 22 06  16 39 18.585   +08 54 52.65  1.1029 2.0371 148.7 21.8 6.65 163
2019 05 22 07  16 39 15.231   +08 54 39.02  1.1028 2.0370 148.8 21.8 6.72 163
2019 05 22 08  16 39 11.875   +08 54 25.34  1.1027 2.0370 148.8 21.8 6.79 163
2019 05 22 09  16 39 08.518   +08 54 11.62  1.1026 2.0370 148.8 21.8 6.85 163
2019 05 22 10  16 39 05.158   +08 53 57.85  1.1024 2.0369 148.8 21.8 6.92 163
2019 05 22 11  16 39 01.798   +08 53 44.04  1.1023 2.0369 148.8 21.8 6.99 163
2019 05 22 12  16 38 58.435   +08 53 30.18  1.1022 2.0369 148.8 21.8 7.06 163
2019 05 22 13  16 38 55.071   +08 53 16.28  1.1021 2.0368 148.8 21.8 7.13 163
2019 05 22 14  16 38 51.705   +08 53 02.34  1.1020 2.0368 148.9 21.8 7.20 163
2019 05 22 15  16 38 48.337   +08 52 48.35  1.1018 2.0367 148.9 21.8 7.27 163
2019 05 22 16  16 38 44.968   +08 52 34.31  1.1017 2.0367 148.9 21.8 7.34 163
2019 05 22 17  16 38 41.597   +08 52 20.23  1.1016 2.0367 148.9 21.8 7.42 162
2019 05 22 18  16 38 38.224   +08 52 06.11  1.1015 2.0366 148.9 21.8 7.49 162
2019 05 22 19  16 38 34.850   +08 51 51.94  1.1014 2.0366 148.9 21.8 7.56 162
2019 05 22 20  16 38 31.474   +08 51 37.72  1.1012 2.0366 148.9 21.8 7.63 162
2019 05 22 21  16 38 28.096   +08 51 23.46  1.1011 2.0365 149.0 21.8 7.71 162
2019 05 22 22  16 38 24.717   +08 51 09.16  1.1010 2.0365 149.0 21.8 7.78 162
2019 05 22 23  16 38 21.336   +08 50 54.81  1.1009 2.0365 149.0 21.8 7.85 162
2019 05 23 00  16 38 17.953   +08 50 40.42  1.1008 2.0364 149.0 21.8 7.93 162
2019 05 23 01  16 38 14.569   +08 50 25.98  1.1006 2.0364 149.0 21.8 8.00 162
2019 05 23 02  16 38 11.184   +08 50 11.50  1.1005 2.0364 149.0 21.8 8.08 162